User: anonymous   Login
Location: Unspecified
(0.0000°N, 0.0000°E)
Time: 09:57:22
(UTC+00:00)
Language:

USA 176 - Orbit

View from above orbital plane
View from above orbital plane
View from above satellite
View from above satellite

Ground track
Ground track

The orbit data is extracted from the following two-line orbital elements,

1 28158U 04004A   15147.27927386 0.00000000  00000-0  00000-0 0    07
2 28158   6.5713  51.2648 0004203 222.5875 137.3899  1.00270000    04
Epoch (UTC): 27 May 2015 06:42:09
Eccentricity: 0.0004203
inclination: 6.5713°
perigee height: 35769 km
apogee height: 35804 km
right ascension of ascending node: 51.2648°
argument of perigee: 222.5875°
revolutions per day: 1.00270000
mean anomaly at epoch: 137.3899°
orbit number at epoch: 0

The dashed part of the orbit path shows where the satellite is in the earth's shadow,  

DLR